Year,Month,Day,Hour,Minute,Value (Times are PST for temperature in C)
2013,06,16,00,00,14.90
2013,06,16,00,01,14.90
2013,06,16,00,02,14.80
2013,06,16,00,03,14.80
2013,06,16,00,04,14.80
2013,06,16,00,05,14.80
2013,06,16,00,06,14.80
2013,06,16,00,07,14.80
2013,06,16,00,08,14.70
2013,06,16,00,09,14.60
2013,06,16,00,10,14.60
2013,06,16,00,11,14.60
2013,06,16,00,12,14.60
2013,06,16,00,13,14.60
2013,06,16,00,14,14.60
2013,06,16,00,15,14.50
2013,06,16,00,16,14.50
2013,06,16,00,17,14.40
2013,06,16,00,18,14.40
2013,06,16,00,19,14.30
2013,06,16,00,20,14.30
2013,06,16,00,21,14.30
2013,06,16,00,22,14.30
2013,06,16,00,23,14.20
2013,06,16,00,24,14.20
2013,06,16,00,25,14.20
2013,06,16,00,26,14.20
2013,06,16,00,27,14.20
2013,06,16,00,28,14.10
2013,06,16,00,29,14.10
2013,06,16,00,30,14.10
2013,06,16,00,31,14.10
2013,06,16,00,32,14.10
2013,06,16,00,33,14.10
2013,06,16,00,34,14.00
2013,06,16,00,35,14.00
2013,06,16,00,36,13.90
2013,06,16,00,37,13.90
2013,06,16,00,38,13.90
2013,06,16,00,39,13.90
2013,06,16,00,40,13.90
2013,06,16,00,41,13.80
2013,06,16,00,42,13.80
2013,06,16,00,43,13.80
2013,06,16,00,44,13.80
2013,06,16,00,45,13.80
2013,06,16,00,46,13.80
2013,06,16,00,47,13.80
2013,06,16,00,48,13.80
2013,06,16,00,49,13.80
2013,06,16,00,50,13.70
2013,06,16,00,51,13.70
2013,06,16,00,52,13.60
2013,06,16,00,53,13.50
2013,06,16,00,54,13.50
2013,06,16,00,55,13.50
2013,06,16,00,56,13.50
2013,06,16,00,57,13.40
2013,06,16,00,58,13.50
2013,06,16,00,59,13.50
2013,06,16,01,00,13.50
2013,06,16,01,01,13.50
2013,06,16,01,02,13.50
2013,06,16,01,03,13.50
2013,06,16,01,04,13.50
2013,06,16,01,05,13.50
2013,06,16,01,06,13.50
2013,06,16,01,07,13.50
2013,06,16,01,08,13.40
2013,06,16,01,09,13.40
2013,06,16,01,10,13.40
2013,06,16,01,11,13.40
2013,06,16,01,12,13.40
2013,06,16,01,13,13.40
2013,06,16,01,14,13.40
2013,06,16,01,15,13.40
2013,06,16,01,16,13.40
2013,06,16,01,17,13.40
2013,06,16,01,18,13.40
2013,06,16,01,19,13.30
2013,06,16,01,20,13.30
2013,06,16,01,21,13.30
2013,06,16,01,22,13.30
2013,06,16,01,23,13.20
2013,06,16,01,24,13.20
2013,06,16,01,25,13.20
2013,06,16,01,26,13.10
2013,06,16,01,27,13.00
2013,06,16,01,28,12.90
2013,06,16,01,29,12.90
2013,06,16,01,30,12.80
2013,06,16,01,31,12.80
2013,06,16,01,32,12.70
2013,06,16,01,33,12.70
2013,06,16,01,34,12.70
2013,06,16,01,35,12.70
2013,06,16,01,36,12.70
2013,06,16,01,37,12.70
2013,06,16,01,38,12.70
2013,06,16,01,39,12.60
2013,06,16,01,40,12.60
2013,06,16,01,41,12.60
2013,06,16,01,42,12.60
2013,06,16,01,43,12.60
2013,06,16,01,44,12.60
2013,06,16,01,45,12.60
2013,06,16,01,46,12.60
2013,06,16,01,47,12.60
2013,06,16,01,48,12.60
2013,06,16,01,49,12.60
2013,06,16,01,50,12.60
2013,06,16,01,51,12.60
2013,06,16,01,52,12.60
2013,06,16,01,53,12.60
2013,06,16,01,54,12.60
2013,06,16,01,55,12.50
2013,06,16,01,56,12.50
2013,06,16,01,57,12.50
2013,06,16,01,58,12.40
2013,06,16,01,59,12.40
2013,06,16,02,00,12.30
2013,06,16,02,01,12.20
2013,06,16,02,02,12.20
2013,06,16,02,03,12.20
2013,06,16,02,04,12.20
2013,06,16,02,05,12.20
2013,06,16,02,06,12.20
2013,06,16,02,07,12.20
2013,06,16,02,08,12.20
2013,06,16,02,09,12.20
2013,06,16,02,10,12.20
2013,06,16,02,11,12.20
2013,06,16,02,12,12.20
2013,06,16,02,13,12.20
2013,06,16,02,14,12.10
2013,06,16,02,15,12.10
2013,06,16,02,16,12.10
2013,06,16,02,17,12.10
2013,06,16,02,18,12.00
2013,06,16,02,19,12.10
2013,06,16,02,20,12.10
2013,06,16,02,21,12.10
2013,06,16,02,22,12.10
2013,06,16,02,23,12.10
2013,06,16,02,24,12.10
2013,06,16,02,25,12.10
2013,06,16,02,26,12.10
2013,06,16,02,27,12.10
2013,06,16,02,28,12.10
2013,06,16,02,29,12.10
2013,06,16,02,30,12.10
2013,06,16,02,31,12.10
2013,06,16,02,32,12.10
2013,06,16,02,33,12.10
2013,06,16,02,34,12.00
2013,06,16,02,35,12.00
2013,06,16,02,36,12.00
2013,06,16,02,37,12.00
2013,06,16,02,38,12.00
2013,06,16,02,39,12.00
2013,06,16,02,40,12.00
2013,06,16,02,41,12.00
2013,06,16,02,42,12.00
2013,06,16,02,43,12.00
2013,06,16,02,44,12.10
2013,06,16,02,45,12.10
2013,06,16,02,46,12.10
2013,06,16,02,47,12.10
2013,06,16,02,48,12.20
2013,06,16,02,49,12.20
2013,06,16,02,50,12.20
2013,06,16,02,51,12.20
2013,06,16,02,52,12.20
2013,06,16,02,53,12.20
2013,06,16,02,54,12.10
2013,06,16,02,55,12.10
2013,06,16,02,56,12.10
2013,06,16,02,57,12.00
2013,06,16,02,58,12.00
2013,06,16,02,59,12.00
2013,06,16,03,00,12.00
2013,06,16,03,01,12.10
2013,06,16,03,02,12.10
2013,06,16,03,03,12.10
2013,06,16,03,04,12.10
2013,06,16,03,05,12.10
2013,06,16,03,06,12.10
2013,06,16,03,07,12.10
2013,06,16,03,08,12.10
2013,06,16,03,09,12.10
2013,06,16,03,10,12.10
2013,06,16,03,11,12.20
2013,06,16,03,12,12.20
2013,06,16,03,13,12.20
2013,06,16,03,14,12.30
2013,06,16,03,15,12.30
2013,06,16,03,16,12.30
2013,06,16,03,17,12.40
2013,06,16,03,18,12.40
2013,06,16,03,19,12.40
2013,06,16,03,20,12.40
2013,06,16,03,21,12.40
2013,06,16,03,22,12.40
2013,06,16,03,23,12.40
2013,06,16,03,24,12.40
2013,06,16,03,25,12.40
2013,06,16,03,26,12.40
2013,06,16,03,27,12.40
2013,06,16,03,28,12.40
2013,06,16,03,29,12.40
2013,06,16,03,30,12.40
2013,06,16,03,31,12.40
2013,06,16,03,32,12.40
2013,06,16,03,33,12.40
2013,06,16,03,34,12.40
2013,06,16,03,35,12.30
2013,06,16,03,36,12.30
2013,06,16,03,37,12.20
2013,06,16,03,38,12.20
2013,06,16,03,39,12.10
2013,06,16,03,40,12.10
2013,06,16,03,41,12.20
2013,06,16,03,42,12.20
2013,06,16,03,43,12.20
2013,06,16,03,44,12.20
2013,06,16,03,45,12.20
2013,06,16,03,46,12.20
2013,06,16,03,47,12.20
2013,06,16,03,48,12.10
2013,06,16,03,49,12.10
2013,06,16,03,50,12.00
2013,06,16,03,51,12.00
2013,06,16,03,52,11.90
2013,06,16,03,53,11.90
2013,06,16,03,54,11.90
2013,06,16,03,55,11.90
2013,06,16,03,56,11.80
2013,06,16,03,57,11.80
2013,06,16,03,58,11.80
2013,06,16,03,59,11.80
2013,06,16,04,00,11.70
2013,06,16,04,01,11.70
2013,06,16,04,02,11.70
2013,06,16,04,03,11.70
2013,06,16,04,04,11.60
2013,06,16,04,05,11.60
2013,06,16,04,06,11.50
2013,06,16,04,07,11.50
2013,06,16,04,08,11.40
2013,06,16,04,09,11.40
2013,06,16,04,10,11.40
2013,06,16,04,11,11.40
2013,06,16,04,12,11.40
2013,06,16,04,13,11.30
2013,06,16,04,14,11.30
2013,06,16,04,15,11.30
2013,06,16,04,16,11.30
2013,06,16,04,17,11.30
2013,06,16,04,18,11.30
2013,06,16,04,19,11.30
2013,06,16,04,20,11.30
2013,06,16,04,21,11.30
2013,06,16,04,22,11.30
2013,06,16,04,23,11.40
2013,06,16,04,24,11.40
2013,06,16,04,25,11.40
2013,06,16,04,26,11.40
2013,06,16,04,27,11.40
2013,06,16,04,28,11.40
2013,06,16,04,29,11.40
2013,06,16,04,30,11.30
2013,06,16,04,31,11.30
2013,06,16,04,32,11.30
2013,06,16,04,33,11.20
2013,06,16,04,34,11.20
2013,06,16,04,35,11.10
2013,06,16,04,36,11.10
2013,06,16,04,37,11.00
2013,06,16,04,38,11.00
2013,06,16,04,39,11.00
2013,06,16,04,40,11.10
2013,06,16,04,41,11.10
2013,06,16,04,42,11.10
2013,06,16,04,43,11.10
2013,06,16,04,44,11.10
2013,06,16,04,45,11.10
2013,06,16,04,46,11.10
2013,06,16,04,47,11.10
2013,06,16,04,48,11.10
2013,06,16,04,49,11.00
2013,06,16,04,50,11.00
2013,06,16,04,51,11.00
2013,06,16,04,52,11.00
2013,06,16,04,53,11.00
2013,06,16,04,54,11.00
2013,06,16,04,55,11.10
2013,06,16,04,56,11.10
2013,06,16,04,57,11.10
2013,06,16,04,58,11.10
2013,06,16,04,59,11.10
2013,06,16,05,00,11.10
2013,06,16,05,01,11.10
2013,06,16,05,02,11.00
2013,06,16,05,03,11.00
2013,06,16,05,04,10.90
2013,06,16,05,05,10.90
2013,06,16,05,06,10.80
2013,06,16,05,07,10.80
2013,06,16,05,08,10.90
2013,06,16,05,09,10.90
2013,06,16,05,10,11.00
2013,06,16,05,11,11.00
2013,06,16,05,12,11.10
2013,06,16,05,13,11.10
2013,06,16,05,14,11.20
2013,06,16,05,15,11.20
2013,06,16,05,16,11.20
2013,06,16,05,17,11.20
2013,06,16,05,18,11.20
2013,06,16,05,19,11.20
2013,06,16,05,20,11.20
2013,06,16,05,21,11.20
2013,06,16,05,22,11.20
2013,06,16,05,23,11.30
2013,06,16,05,24,11.30
2013,06,16,05,25,11.30
2013,06,16,05,26,11.30
2013,06,16,05,27,11.30
2013,06,16,05,28,11.30
2013,06,16,05,29,11.30
2013,06,16,05,30,11.30
2013,06,16,05,31,11.30
2013,06,16,05,32,11.20
2013,06,16,05,33,11.20
2013,06,16,05,34,11.10
2013,06,16,05,35,11.10
2013,06,16,05,36,11.10
2013,06,16,05,37,11.10
2013,06,16,05,38,11.10
2013,06,16,05,39,11.10
2013,06,16,05,40,11.10
2013,06,16,05,41,11.10
2013,06,16,05,42,11.10
2013,06,16,05,43,11.20
2013,06,16,05,44,11.20
2013,06,16,05,45,11.20
2013,06,16,05,46,11.30
2013,06,16,05,47,11.30
2013,06,16,05,48,11.30
2013,06,16,05,49,11.40
2013,06,16,05,50,11.40
2013,06,16,05,51,11.50
2013,06,16,05,52,11.60
2013,06,16,05,53,11.60
2013,06,16,05,54,11.70
2013,06,16,05,55,11.80
2013,06,16,05,56,11.80
2013,06,16,05,57,11.90
2013,06,16,05,58,11.90
2013,06,16,05,59,12.00
2013,06,16,06,00,12.00
2013,06,16,06,01,12.00
2013,06,16,06,02,12.00
2013,06,16,06,03,12.10
2013,06,16,06,04,12.10
2013,06,16,06,05,12.10
2013,06,16,06,06,12.20
2013,06,16,06,07,12.20
2013,06,16,06,08,12.30
2013,06,16,06,09,12.30
2013,06,16,06,10,12.40
2013,06,16,06,11,12.50
2013,06,16,06,12,12.50
2013,06,16,06,13,12.60
2013,06,16,06,14,12.70
2013,06,16,06,15,12.70
2013,06,16,06,16,12.80
2013,06,16,06,17,12.80
2013,06,16,06,18,12.90
2013,06,16,06,19,12.90
2013,06,16,06,20,13.00
2013,06,16,06,21,13.10
2013,06,16,06,22,13.10
2013,06,16,06,23,13.20
2013,06,16,06,24,13.20
2013,06,16,06,25,13.30
2013,06,16,06,26,13.30
2013,06,16,06,27,13.40
2013,06,16,06,28,13.40
2013,06,16,06,29,13.50
2013,06,16,06,30,13.50
2013,06,16,06,31,13.50
2013,06,16,06,32,13.50
2013,06,16,06,33,13.50
2013,06,16,06,34,13.50
2013,06,16,06,35,13.60
2013,06,16,06,36,13.70
2013,06,16,06,37,13.70
2013,06,16,06,38,13.80
2013,06,16,06,39,13.90
2013,06,16,06,40,14.00
2013,06,16,06,41,14.10
2013,06,16,06,42,14.20
2013,06,16,06,43,14.30
2013,06,16,06,44,14.30
2013,06,16,06,45,14.40
2013,06,16,06,46,14.40
2013,06,16,06,47,14.40
2013,06,16,06,48,14.50
2013,06,16,06,49,14.50
2013,06,16,06,50,14.50
2013,06,16,06,51,14.50
2013,06,16,06,52,14.50
2013,06,16,06,53,14.50
2013,06,16,06,54,14.50
2013,06,16,06,55,14.50
2013,06,16,06,56,14.60
2013,06,16,06,57,14.60
2013,06,16,06,58,14.60
2013,06,16,06,59,14.60
2013,06,16,07,00,14.60
2013,06,16,07,01,14.60
2013,06,16,07,02,14.60
2013,06,16,07,03,14.60
2013,06,16,07,04,14.60
2013,06,16,07,05,14.60
2013,06,16,07,06,14.60
2013,06,16,07,07,14.70
2013,06,16,07,08,14.70
2013,06,16,07,09,14.70
2013,06,16,07,10,14.70
2013,06,16,07,11,14.70
2013,06,16,07,12,14.70
2013,06,16,07,13,14.70
2013,06,16,07,14,14.80
2013,06,16,07,15,14.80
2013,06,16,07,16,14.80
2013,06,16,07,17,14.80
2013,06,16,07,18,14.80
2013,06,16,07,19,14.80
2013,06,16,07,20,14.80
2013,06,16,07,21,14.80
2013,06,16,07,22,14.90
2013,06,16,07,23,14.80
2013,06,16,07,24,14.80
2013,06,16,07,25,14.80
2013,06,16,07,26,14.90
2013,06,16,07,27,14.90
2013,06,16,07,28,14.90
2013,06,16,07,29,14.90
2013,06,16,07,30,15.00
2013,06,16,07,31,15.00
2013,06,16,07,32,15.00
2013,06,16,07,33,15.10
2013,06,16,07,34,15.20
2013,06,16,07,35,15.30
2013,06,16,07,36,15.40
2013,06,16,07,37,15.50
2013,06,16,07,38,15.50
2013,06,16,07,39,15.60
2013,06,16,07,40,15.70
2013,06,16,07,41,15.70
2013,06,16,07,42,15.80
2013,06,16,07,43,15.80
2013,06,16,07,44,15.90
2013,06,16,07,45,15.90
2013,06,16,07,46,16.00
2013,06,16,07,47,16.00
2013,06,16,07,48,16.10
2013,06,16,07,49,16.10
2013,06,16,07,50,16.20
2013,06,16,07,51,16.30
2013,06,16,07,52,16.30
2013,06,16,07,53,16.30
2013,06,16,07,54,16.30
2013,06,16,07,55,16.30
2013,06,16,07,56,16.30
2013,06,16,07,57,16.30
2013,06,16,07,58,16.30
2013,06,16,07,59,16.30
2013,06,16,08,00,16.30
2013,06,16,08,01,16.30
2013,06,16,08,02,16.30
2013,06,16,08,03,16.40
2013,06,16,08,04,16.40
2013,06,16,08,05,16.50
2013,06,16,08,06,16.60
2013,06,16,08,07,16.60
2013,06,16,08,08,16.70
2013,06,16,08,09,16.80
2013,06,16,08,10,16.80
2013,06,16,08,11,16.80
2013,06,16,08,12,16.90
2013,06,16,08,13,16.90
2013,06,16,08,14,17.00
2013,06,16,08,15,17.00
2013,06,16,08,16,17.00
2013,06,16,08,17,17.10
2013,06,16,08,18,17.10
2013,06,16,08,19,17.20
2013,06,16,08,20,17.20
2013,06,16,08,21,17.30
2013,06,16,08,22,17.30
2013,06,16,08,23,17.30
2013,06,16,08,24,17.30
2013,06,16,08,25,17.30
2013,06,16,08,26,17.20
2013,06,16,08,27,17.20
2013,06,16,08,28,17.10
2013,06,16,08,29,17.10
2013,06,16,08,30,17.10
2013,06,16,08,31,17.10
2013,06,16,08,32,17.10
2013,06,16,08,33,17.20
2013,06,16,08,34,17.10
2013,06,16,08,35,17.20
2013,06,16,08,36,17.10
2013,06,16,08,37,17.10
2013,06,16,08,38,17.00
2013,06,16,08,39,16.90
2013,06,16,08,40,16.90
2013,06,16,08,41,16.80
2013,06,16,08,42,16.80
2013,06,16,08,43,16.80
2013,06,16,08,44,16.90
2013,06,16,08,45,16.90
2013,06,16,08,46,17.00
2013,06,16,08,47,16.90
2013,06,16,08,48,16.90
2013,06,16,08,49,16.90
2013,06,16,08,50,16.90
2013,06,16,08,51,16.90
2013,06,16,08,52,17.00
2013,06,16,08,53,17.00
2013,06,16,08,54,17.00
2013,06,16,08,55,17.00
2013,06,16,08,56,17.00
2013,06,16,08,57,17.00
2013,06,16,08,58,17.00
2013,06,16,08,59,17.00
2013,06,16,09,00,16.90
2013,06,16,09,01,16.80
2013,06,16,09,02,16.80
2013,06,16,09,03,16.90
2013,06,16,09,04,16.90
2013,06,16,09,05,16.90
2013,06,16,09,06,17.00
2013,06,16,09,07,17.00
2013,06,16,09,08,17.10
2013,06,16,09,09,17.10
2013,06,16,09,10,17.10
2013,06,16,09,11,17.20
2013,06,16,09,12,17.20
2013,06,16,09,13,17.20
2013,06,16,09,14,17.30
2013,06,16,09,15,17.30
2013,06,16,09,16,17.30
2013,06,16,09,17,17.20
2013,06,16,09,18,17.20
2013,06,16,09,19,17.20
2013,06,16,09,20,17.20
2013,06,16,09,21,17.20
2013,06,16,09,22,17.20
2013,06,16,09,23,17.20
2013,06,16,09,24,17.30
2013,06,16,09,25,17.30
2013,06,16,09,26,17.30
2013,06,16,09,27,17.40
2013,06,16,09,28,17.50
2013,06,16,09,29,17.50
2013,06,16,09,30,17.60
2013,06,16,09,31,17.60
2013,06,16,09,32,17.70
2013,06,16,09,33,17.80
2013,06,16,09,34,17.80
2013,06,16,09,35,17.80
2013,06,16,09,36,17.80
2013,06,16,09,37,17.80
2013,06,16,09,38,17.90
2013,06,16,09,39,18.00
2013,06,16,09,40,18.10
2013,06,16,09,41,18.20
2013,06,16,09,42,18.30
2013,06,16,09,43,18.30
2013,06,16,09,44,18.40
2013,06,16,09,45,18.40
2013,06,16,09,46,18.30
2013,06,16,09,47,18.30
2013,06,16,09,48,18.40
2013,06,16,09,49,18.40
2013,06,16,09,50,18.50
2013,06,16,09,51,18.50
2013,06,16,09,52,18.40
2013,06,16,09,53,18.40
2013,06,16,09,54,18.40
2013,06,16,09,55,18.40
2013,06,16,09,56,18.40
2013,06,16,09,57,18.40
2013,06,16,09,58,18.40
2013,06,16,09,59,18.40
2013,06,16,10,00,18.40
2013,06,16,10,01,18.30
2013,06,16,10,02,18.30
2013,06,16,10,03,18.30
2013,06,16,10,04,18.40
2013,06,16,10,05,18.40
2013,06,16,10,06,18.40
2013,06,16,10,07,18.50
2013,06,16,10,08,18.60
2013,06,16,10,09,18.60
2013,06,16,10,10,18.60
2013,06,16,10,11,18.70
2013,06,16,10,12,18.70
2013,06,16,10,13,18.70
2013,06,16,10,14,18.70
2013,06,16,10,15,18.70
2013,06,16,10,16,18.80
2013,06,16,10,17,18.90
2013,06,16,10,18,19.10
2013,06,16,10,19,19.20
2013,06,16,10,20,19.20
2013,06,16,10,21,19.20
2013,06,16,10,22,19.20
2013,06,16,10,23,19.10
2013,06,16,10,24,19.10
2013,06,16,10,25,19.10
2013,06,16,10,26,19.10
2013,06,16,10,27,19.10
2013,06,16,10,28,19.20
2013,06,16,10,29,19.30
2013,06,16,10,30,19.30
2013,06,16,10,31,19.40
2013,06,16,10,32,19.40
2013,06,16,10,33,19.40
2013,06,16,10,34,19.40
2013,06,16,10,35,19.50
2013,06,16,10,36,19.70
2013,06,16,10,37,19.80
2013,06,16,10,38,19.90
2013,06,16,10,39,20.00
2013,06,16,10,40,20.00
2013,06,16,10,41,20.00
2013,06,16,10,42,20.00
2013,06,16,10,43,19.90
2013,06,16,10,44,19.80
2013,06,16,10,45,19.80
2013,06,16,10,46,19.90
2013,06,16,10,47,20.00
2013,06,16,10,48,20.00
2013,06,16,10,49,20.00
2013,06,16,10,50,20.10
2013,06,16,10,51,20.20
2013,06,16,10,52,20.10
2013,06,16,10,53,20.10
2013,06,16,10,54,20.00
2013,06,16,10,55,20.00
2013,06,16,10,56,19.90
2013,06,16,10,57,19.90
2013,06,16,10,58,20.00
2013,06,16,10,59,19.90
2013,06,16,11,00,19.90
2013,06,16,11,01,19.90
2013,06,16,11,02,19.90
2013,06,16,11,03,19.80
2013,06,16,11,04,19.80
2013,06,16,11,05,19.70
2013,06,16,11,06,19.60
2013,06,16,11,07,19.50
2013,06,16,11,08,19.50
2013,06,16,11,09,19.60
2013,06,16,11,10,19.80
2013,06,16,11,11,20.00
2013,06,16,11,12,20.10
2013,06,16,11,13,20.20
2013,06,16,11,14,20.30
2013,06,16,11,15,20.40
2013,06,16,11,16,20.30
2013,06,16,11,17,20.30
2013,06,16,11,18,20.30
2013,06,16,11,19,20.40
2013,06,16,11,20,20.50
2013,06,16,11,21,20.50
2013,06,16,11,22,20.40
2013,06,16,11,23,20.30
2013,06,16,11,24,20.10
2013,06,16,11,25,20.10
2013,06,16,11,26,20.10
2013,06,16,11,27,20.20
2013,06,16,11,28,20.10
2013,06,16,11,29,20.10
2013,06,16,11,30,19.90
2013,06,16,11,31,19.80
2013,06,16,11,32,19.80
2013,06,16,11,33,19.70
2013,06,16,11,34,19.70
2013,06,16,11,35,19.70
2013,06,16,11,36,19.60
2013,06,16,11,37,19.50
2013,06,16,11,38,19.40
2013,06,16,11,39,19.30
2013,06,16,11,40,19.30
2013,06,16,11,41,19.30
2013,06,16,11,42,19.40
2013,06,16,11,43,19.50
2013,06,16,11,44,19.60
2013,06,16,11,45,19.60
2013,06,16,11,46,19.80
2013,06,16,11,47,19.90
2013,06,16,11,48,20.00
2013,06,16,11,49,20.10
2013,06,16,11,50,20.10
2013,06,16,11,51,20.10
2013,06,16,11,52,20.20
2013,06,16,11,53,20.40
2013,06,16,11,54,20.60
2013,06,16,11,55,20.70
2013,06,16,11,56,20.90
2013,06,16,11,57,21.00
2013,06,16,11,58,21.20
2013,06,16,11,59,21.30
2013,06,16,12,00,21.30
2013,06,16,12,01,21.30
2013,06,16,12,02,21.40
2013,06,16,12,03,21.50
2013,06,16,12,04,21.60
2013,06,16,12,05,21.70
2013,06,16,12,06,21.90
2013,06,16,12,07,21.90
2013,06,16,12,08,22.00
2013,06,16,12,09,22.00
2013,06,16,12,10,22.10
2013,06,16,12,11,22.20
2013,06,16,12,12,22.20
2013,06,16,12,13,22.20
2013,06,16,12,14,22.20
2013,06,16,12,15,22.20
2013,06,16,12,16,22.30
2013,06,16,12,17,22.30
2013,06,16,12,18,22.30
2013,06,16,12,19,22.20
2013,06,16,12,20,22.20
2013,06,16,12,21,22.30
2013,06,16,12,22,22.40
2013,06,16,12,23,22.50
2013,06,16,12,24,22.60
2013,06,16,12,25,22.60
2013,06,16,12,26,22.50
2013,06,16,12,27,22.50
2013,06,16,12,28,22.30
2013,06,16,12,29,22.20
2013,06,16,12,30,22.20
2013,06,16,12,31,22.20
2013,06,16,12,32,22.20
2013,06,16,12,33,22.30
2013,06,16,12,34,22.40
2013,06,16,12,35,22.50
2013,06,16,12,36,22.50
2013,06,16,12,37,22.50
2013,06,16,12,38,22.60
2013,06,16,12,39,22.60
2013,06,16,12,40,22.60
2013,06,16,12,41,22.70
2013,06,16,12,42,22.80
2013,06,16,12,43,23.00
2013,06,16,12,44,22.90
2013,06,16,12,45,22.80
2013,06,16,12,46,22.70
2013,06,16,12,47,22.60
2013,06,16,12,48,22.60
2013,06,16,12,49,22.50
2013,06,16,12,50,22.40
2013,06,16,12,51,22.40
2013,06,16,12,52,22.40
2013,06,16,12,53,22.40
2013,06,16,12,54,22.40
2013,06,16,12,55,22.40
2013,06,16,12,56,22.30
2013,06,16,12,57,22.30
2013,06,16,12,58,22.30
2013,06,16,12,59,22.30
2013,06,16,13,00,22.30
2013,06,16,13,01,22.30
2013,06,16,13,02,22.30
2013,06,16,13,03,22.30
2013,06,16,13,04,22.30
2013,06,16,13,05,22.30
2013,06,16,13,06,22.30
2013,06,16,13,07,22.30
2013,06,16,13,08,22.20
2013,06,16,13,09,22.00
2013,06,16,13,10,22.00
2013,06,16,13,11,22.10
2013,06,16,13,12,22.10
2013,06,16,13,13,22.10
2013,06,16,13,14,22.20
2013,06,16,13,15,22.20
2013,06,16,13,16,22.10
2013,06,16,13,17,22.00
2013,06,16,13,18,22.00
2013,06,16,13,19,21.90
2013,06,16,13,20,22.00
2013,06,16,13,21,22.10
2013,06,16,13,22,22.30
2013,06,16,13,23,22.30
2013,06,16,13,24,22.30
2013,06,16,13,25,22.30
2013,06,16,13,26,22.20
2013,06,16,13,27,22.20
2013,06,16,13,28,22.20
2013,06,16,13,29,22.20
2013,06,16,13,30,22.30
2013,06,16,13,31,22.30
2013,06,16,13,32,22.30
2013,06,16,13,33,22.30
2013,06,16,13,34,22.20
2013,06,16,13,35,22.10
2013,06,16,13,36,22.00
2013,06,16,13,37,21.90
2013,06,16,13,38,21.90
2013,06,16,13,39,22.00
2013,06,16,13,40,22.00
2013,06,16,13,41,22.10
2013,06,16,13,42,22.10
2013,06,16,13,43,22.20
2013,06,16,13,44,22.10
2013,06,16,13,45,22.10
2013,06,16,13,46,22.10
2013,06,16,13,47,22.20
2013,06,16,13,48,22.30
2013,06,16,13,49,22.20
2013,06,16,13,50,22.20
2013,06,16,13,51,22.10
2013,06,16,13,52,22.10
2013,06,16,13,53,22.00
2013,06,16,13,54,22.10
2013,06,16,13,55,22.10
2013,06,16,13,56,22.10
2013,06,16,13,57,22.10
2013,06,16,13,58,22.10
2013,06,16,13,59,22.10
2013,06,16,14,00,22.10
2013,06,16,14,01,22.10
2013,06,16,14,02,22.10
2013,06,16,14,03,22.00
2013,06,16,14,04,21.90
2013,06,16,14,05,21.90
2013,06,16,14,06,21.80
2013,06,16,14,07,21.90
2013,06,16,14,08,21.80
2013,06,16,14,09,21.80
2013,06,16,14,10,21.80
2013,06,16,14,11,21.80
2013,06,16,14,12,21.80
2013,06,16,14,13,21.80
2013,06,16,14,14,21.80
2013,06,16,14,15,21.80
2013,06,16,14,16,21.70
2013,06,16,14,17,21.70
2013,06,16,14,18,21.70
2013,06,16,14,19,21.70
2013,06,16,14,20,21.80
2013,06,16,14,21,21.80
2013,06,16,14,22,21.90
2013,06,16,14,23,21.90
2013,06,16,14,24,22.00
2013,06,16,14,25,22.10
2013,06,16,14,26,22.20
2013,06,16,14,27,22.30
2013,06,16,14,28,22.50
2013,06,16,14,29,22.60
2013,06,16,14,30,22.70
2013,06,16,14,31,22.70
2013,06,16,14,32,22.80
2013,06,16,14,33,22.90
2013,06,16,14,34,22.80
2013,06,16,14,35,22.80
2013,06,16,14,36,22.70
2013,06,16,14,37,22.60
2013,06,16,14,38,22.60
2013,06,16,14,39,22.60
2013,06,16,14,40,22.60
2013,06,16,14,41,22.60
2013,06,16,14,42,22.70
2013,06,16,14,43,22.70
2013,06,16,14,44,22.70
2013,06,16,14,45,22.60
2013,06,16,14,46,22.40
2013,06,16,14,47,22.30
2013,06,16,14,48,22.30
2013,06,16,14,49,22.30
2013,06,16,14,50,22.20
2013,06,16,14,51,22.20
2013,06,16,14,52,22.10
2013,06,16,14,53,22.20
2013,06,16,14,54,22.30
2013,06,16,14,55,22.40
2013,06,16,14,56,22.40
2013,06,16,14,57,22.30
2013,06,16,14,58,22.20
2013,06,16,14,59,22.10
2013,06,16,15,00,22.10
2013,06,16,15,01,22.10
2013,06,16,15,02,22.10
2013,06,16,15,03,22.30
2013,06,16,15,04,22.40
2013,06,16,15,05,22.50
2013,06,16,15,06,22.60
2013,06,16,15,07,22.60
2013,06,16,15,08,22.60
2013,06,16,15,09,22.70
2013,06,16,15,10,22.60
2013,06,16,15,11,22.60
2013,06,16,15,12,22.60
2013,06,16,15,13,22.60
2013,06,16,15,14,22.70
2013,06,16,15,15,22.80
2013,06,16,15,16,23.00
2013,06,16,15,17,23.00
2013,06,16,15,18,23.10
2013,06,16,15,19,23.20
2013,06,16,15,20,23.20
2013,06,16,15,21,23.10
2013,06,16,15,22,23.00
2013,06,16,15,23,23.00
2013,06,16,15,24,23.00
2013,06,16,15,25,23.00
2013,06,16,15,26,22.90
2013,06,16,15,27,22.80
2013,06,16,15,28,22.70
2013,06,16,15,29,22.60
2013,06,16,15,30,22.50
2013,06,16,15,31,22.40
2013,06,16,15,32,22.30
2013,06,16,15,33,22.30
2013,06,16,15,34,22.40
2013,06,16,15,35,22.40
2013,06,16,15,36,22.50
2013,06,16,15,37,22.50
2013,06,16,15,38,22.50
2013,06,16,15,39,22.40
2013,06,16,15,40,22.30
2013,06,16,15,41,22.30
2013,06,16,15,42,22.20
2013,06,16,15,43,22.20
2013,06,16,15,44,22.10
2013,06,16,15,45,22.00
2013,06,16,15,46,21.80
2013,06,16,15,47,21.80
2013,06,16,15,48,21.80
2013,06,16,15,49,21.70
2013,06,16,15,50,21.60
2013,06,16,15,51,21.40
2013,06,16,15,52,21.20
2013,06,16,15,53,21.10
2013,06,16,15,54,21.00
2013,06,16,15,55,20.90
2013,06,16,15,56,20.90
2013,06,16,15,57,20.90
2013,06,16,15,58,20.90
2013,06,16,15,59,20.90
2013,06,16,16,00,20.90
2013,06,16,16,01,20.80
2013,06,16,16,02,20.80
2013,06,16,16,03,20.80
2013,06,16,16,04,20.80
2013,06,16,16,05,20.80
2013,06,16,16,06,20.80
2013,06,16,16,07,20.80
2013,06,16,16,08,20.80
2013,06,16,16,09,20.80
2013,06,16,16,10,20.70
2013,06,16,16,11,20.70
2013,06,16,16,12,20.60
2013,06,16,16,13,20.60
2013,06,16,16,14,20.50
2013,06,16,16,15,20.40
2013,06,16,16,16,20.30
2013,06,16,16,17,20.30
2013,06,16,16,18,20.30
2013,06,16,16,19,20.30
2013,06,16,16,20,20.30
2013,06,16,16,21,20.30
2013,06,16,16,22,20.30
2013,06,16,16,23,20.30
2013,06,16,16,24,20.40
2013,06,16,16,25,20.40
2013,06,16,16,26,20.40
2013,06,16,16,27,20.30
2013,06,16,16,28,20.30
2013,06,16,16,29,20.30
2013,06,16,16,30,20.30
2013,06,16,16,31,20.30
2013,06,16,16,32,20.30
2013,06,16,16,33,20.20
2013,06,16,16,34,20.20
2013,06,16,16,35,20.20
2013,06,16,16,36,20.20
2013,06,16,16,37,20.20
2013,06,16,16,38,20.20
2013,06,16,16,39,20.30
2013,06,16,16,40,20.30
2013,06,16,16,41,20.30
2013,06,16,16,42,20.30
2013,06,16,16,43,20.40
2013,06,16,16,44,20.50
2013,06,16,16,45,20.60
2013,06,16,16,46,20.70
2013,06,16,16,47,20.80
2013,06,16,16,48,20.80
2013,06,16,16,49,20.90
2013,06,16,16,50,21.00
2013,06,16,16,51,21.00
2013,06,16,16,52,21.00
2013,06,16,16,53,20.90
2013,06,16,16,54,21.00
2013,06,16,16,55,21.00
2013,06,16,16,56,21.10
2013,06,16,16,57,21.10
2013,06,16,16,58,21.20
2013,06,16,16,59,21.20
2013,06,16,17,00,21.10
2013,06,16,17,01,21.10
2013,06,16,17,02,21.00
2013,06,16,17,03,21.00
2013,06,16,17,04,21.00
2013,06,16,17,05,21.00
2013,06,16,17,06,21.00
2013,06,16,17,07,21.00
2013,06,16,17,08,21.10
2013,06,16,17,09,21.10
2013,06,16,17,10,21.20
2013,06,16,17,11,21.20
2013,06,16,17,12,21.10
2013,06,16,17,13,21.10
2013,06,16,17,14,21.00
2013,06,16,17,15,21.00
2013,06,16,17,16,21.00
2013,06,16,17,17,21.10
2013,06,16,17,18,21.10
2013,06,16,17,19,21.20